Regional Weather Roundup
Issued by NWS Wakefield, VA

Home | Current Version | Previous Version | Graphics & Text | Print | Product List | Glossary On
Versions: 1 2 3 4 5 6 7 8 9 10 11 12 13 14 15 16 17 18 19 20 21 22 23 24 25 26 27 28 29 30 31 32 33 34 35 36 37 38 39 40 41 42 43 44 45 46 47 48 49 50
000
ASUS41 KAKQ 280314
RWRAKQ

REGIONAL WEATHER ROUNDUP
NATIONAL WEATHER SERVICE WAKEFIELD VA
1100 PM EDT FRI MAR 27 2015

Note: "fair" indicates few or no clouds below 12,000 feet with no
significant weather and/or obstructions to visibility. * = Denotes
station may not report precipitation (e.g., rain,snow,etc.),
thunder or fog.

VAZ042-051-052>054-056-280400-
NORTHERN VIRGINIA

CITY           SKY/WX    TMP DP  RH WIND       PRES   REMARKS
WASH NATIONAL  MOCLDY    46  25  43 N17       29.84S
DULLES         MOCLDY    41  22  46 N15       29.84S
FORT BELVOIR   MOCLDY    44  23  44 NW9G17    29.84R
QUANTICO       PTCLDY    44  24  45 N12G25    29.85R
FREDERICKSBRG* CLOUDY    45  28  52 N9G16     29.83R
STAFFORD*      PTCLDY    40  27  58 NW8       29.88R
WARRENTON      PTCLDY    42  31  65 N12G18    29.84R
CULPEPER*      CLOUDY    43  27  52 N10G16    29.85R
MANASSAS*      MOCLDY    39  27  60 N7        29.85R
LEESBURG*      MOCLDY    41  28  60 N12G21    29.85F
WINCHESTER     MOCLDY    37  21  52 NW14G21   29.86S
FRONT ROYAL*   CLOUDY    37  25  60 NW5       29.85S
LURAY*         CLOUDY    39  30  70 E5        29.85R
$$

VAZ048-049-060>072-079>083-280400-
CENTRAL AND SOUTH CENTRAL VIRGINIA

CITY           SKY/WX    TMP DP  RH WIND       PRES   REMARKS
RICHMOND       CLOUDY    42  37  82 W5        29.81R
CHESTERFIELD*  MOCLDY    39  28  65 W3        29.82R
PETERSBURG*    CLOUDY    41  40  95 CALM      29.82S
HANOVER        PTCLDY    40  37  89 CALM      29.82S
TAPPAHANNOCK*  MOCLDY    38  35  89 CALM      29.81S FOG
QUINTON*       CLOUDY    37  37 100 CALM      29.81R
CHARLOTTSVILLE CLOUDY    42  25  50 NW3       29.82R
GORDONSVILLE*  CLOUDY    42  26  53 N5        29.82R
ORANGE*        CLOUDY    43  30  61 N8        29.85R
LOUISA*        CLOUDY    45  28  53 N6        29.81R
BUMPASS*       CLOUDY    43  28  55 N5        29.82R
FARMVILLE*     LGT RAIN  41  41  99 NW8       29.82R
CREWE*         CLOUDY    38  37  94 MISG      29.81S
FORT PICKETT*  CLOUDY    37  36  98 W3        29.81S
CHASE CITY*    CLOUDY    41  41 100 CALM      29.81F
CLARKSVILLE*   CLOUDY    37  37 100 CALM      29.81S
SOUTH HILL*    CLOUDY    37  36  94 CALM      29.86F
LAWRENCEVILLE* CLOUDY    38  37  96 CALM      29.81R
EMPORIA*       CLOUDY    37  37 100 W3        29.84R
$$

VAZ088>098-280400-
SOUTHEAST VIRGINIA

CITY           SKY/WX    TMP DP  RH WIND       PRES   REMARKS
NORFOLK        CLOUDY    41  38  89 N9        29.78F
VIRGINIA BEACH CLOUDY    42  38  85 N9        29.77F
NORFOLK NAVAL  CLOUDY    45  37  73 NE12      29.80F
WEST POINT*    CLOUDY    42  39  91 CALM      29.82R
SALUDA*        CLOUDY    39  37  90 CALM      29.80S
NEWPORT NEWS   CLOUDY    43  37  79 N3        29.80F
LANGLEY AFB    CLOUDY    40  37  89 NE7       29.78S
FORT EUSTIS    CLOUDY    40  40  99 NE3       29.79S
WILLIAMSBURG*  CLOUDY    43  41  93 CALM      29.82R
HR EXEC AP*    CLOUDY    41  37  87 N3        29.80S
FRANKLIN*      CLOUDY    40  37  92 CALM      29.81R
WAKEFIELD      CLOUDY    40  37  89 CALM      29.81R
$$

VAZ020-022-025-037-045-280400-
WEST CENTRAL AND SOUTHWEST VIRGINIA

CITY           SKY/WX    TMP DP  RH WIND       PRES   REMARKS
STAUNTON*      CLOUDY    38  25  58 NW7       29.85S
WAYNESBORO*    FAIR      36  22  57 NW7       29.83R
HOT SPRINGS VA CLOUDY    26  20  78 NW16G22   29.74R WCI  14
LYNCHBURG      PTCLDY    38  26  62 VRB6      29.84R
DANVILLE       CLOUDY    43  40  89 CALM      29.82S
SOUTH BOSTON*  CLOUDY    40  38  94 W3        29.83R
MARTINSVILLE   PTCLDY    41  26  54 N5        29.85S
ROANOKE        MOCLDY    39  23  52 N12       29.87R
BLACKSBURG     CLOUDY    34  24  67 NW16      29.87R WCI  23
DUBLIN*        FLURRIES  35  28  75 NW9G18    29.87R
MARION*        FLURRIES  32  25  74 NW10G22   29.89R WCI  24
HILLSVILLE*    FLURRIES  33  26  75 NW15G24   29.81S WCI  23
RICHLANDS*     FLURRIES  29  24  79 NW12G18   29.89R WCI  20
WISE*          LGT SNOW  30  27  86 NW8       29.93R
ABINGDON*      LGT SNOW  34  29  83 N6        29.91S
$$

MDZ021>025-VAZ099-100-280400-
SOUTHERN MARYLAND AND THE DELMARVA PENINSULA

CITY           SKY/WX    TMP DP  RH WIND       PRES   REMARKS
PATUXENT RIVER CLOUDY    40  37  89 W5        29.81S
BAY BRIDGE APT   N/A     43  32  65 NW10      29.81F
LEONARDTOWN    CLOUDY    37  36  93 W3        29.82S
DOVER          CLOUDY    40  34  80 N6        29.79S
GEORGETOWN     CLOUDY    40  38  93 W3        29.79F
EASTON         CLOUDY    41  41 100 CALM      29.83F
CAMBRIDGE      CLOUDY    41  37  87 CALM      29.79F
SALISBURY      CLOUDY    39  37  92 W5        29.79S
OCEAN CITY     CLOUDY    38  37  97 NW3       29.79S
WALLOPS ISLAND CLOUDY    39  37  92 N6        29.78F
ACCOMACK*      CLOUDY    37  36  93 CALM      29.79S FOG
$$

NCZ012>017-030>032-280400-
NORTH CENTRAL AND EASTERN NORTH CAROLINA

CITY           SKY/WX    TMP DP  RH WIND       PRES   REMARKS
ROANOKE RAPIDS CLOUDY    39  36  87 NW3       29.82R
RALEIGH        MOCLDY    40  38  93 CALM      29.82S
ELIZABETH CITY CLOUDY    41  37  87 N12       29.77F
AHOSKIE*       CLOUDY    39  38  95 CALM      29.80S
EDENTON*       CLOUDY    40  38  92 N8        29.79S
CURRITUCK*     CLOUDY    41  37  86 N8G23     29.78F
KILL DEVIL HLS CLOUDY    39  38  95 N13G22    29.73F FOG
MANTEO         CLOUDY    40  38  93 N18G28    29.75F
CAPE HATTERAS  CLOUDY    43  39  86 N14G26    29.71F
TARBORO*       CLOUDY    41  38  87 N3        29.82R
GOLDSBORO      CLOUDY    43  42  98 N6        29.79S
WASHINGTON     CLOUDY    41  39  90 N7        29.79R
GREENVILLE     CLOUDY    41  37  87 N6        29.82S
NEW BERN       CLOUDY    43  39  86 N8        29.79R
WILMINGTON     CLOUDY    44  40  85 N7        29.81R
$$

VAZ048-280400-
ELSEWHERE

CITY           SKY/WX    TMP DP  RH WIND       PRES   REMARKS
HARRISBURG PA  CLOUDY    39  23  52 NW21      29.84S
BALTIMORE      CLOUDY    42  25  50 NW7       29.81F
ANNAPOLIS      CLOUDY    44  28  53 NW10      29.81F
ANDREWS AFB    CLOUDY    42  25  51 N16       29.81S
PHILADELPHIA   CLOUDY    43  23  45 N12       29.81S
HENDERSON NC   MOCLDY    38  36  94 CALM      29.81S FOG
GREENSBORO     MOCLDY    43  37  79 W3        29.80S
ROCKY MOUNT    CLOUDY    42  37  82 NW9       29.81R
$$

VAZ100-280400-
MARINE

STATION/POSITION TIME  TEMP    WIND        PRES    WAVE   SWELL
                       AIR SEA DIR/SP/G            HT/PER HT/PER
                 (UTC) (F)     (DEG/KT/KT) (MB)    (FT/S) (FT/S)
BRANDYWINE LGT   0200   43 40  350/  8/  8 1008.9R
CAPE MAY NJ      0200   42 43  360/  1/  3 1008.3S
LEWES DE         0200   41 43  280/  6/  7 1008.6F
15NM E FENWICK I 0250   40 40              1007.9F   5/10
OCEAN-CITY-INLET 0212   40 42  350/  5/  5 1008.1F
WACHAPREAGUE VA  0200   38 49  350/  2/  4 1008.6F
THOMAS POINT MD  0300                        N/A
COVE POINT MD    0200   40     310/  4/  5 1009.3R
SOLOMONS ISLAND  0212      43                N/A
BISHOPS HEAD MD  0200   41 47  280/  8/  8 1008.6S
PINEY POINT MD   0212          320/  3/  4   N/A
CAMBRIDGE MD     0200   41 45  280/  2/  3 1008.9F
LEWISETTA VA     0200   40 47              1009.3R
RAPPAHANNOCK LGT 0200           10/  9/ 10 1009.3F
STINGRAY PT      0300   41 44  360/  8/ 10   N/A     1
YORK RVR RNG VA  0200           20/  7/  9 1008.7R
YORKTOWN VA      0200           10/  4/  5 1008.9S
DOMINION TERM VA 0200   41      30/  4/  6 1009.1F
KIPTOPEKE VA     0200      49   10/  4/  5   N/A
CHES BAY BRIDGE  0212   40 45  360/  8/ 11 1008.4F
CAPE HENRY VA    0200   40     350/ 15/ 16 1007.2F
CHESAPEAKE LGHT  0200   39      10/ 15/ 16 1008.8F
WILLOUBY STN VA  0200   41      10/  7/  9 1009.4F
S CRANEY ISL VA  0200           10/  6/  9 1008.9F
CAPE HENRY BUOY  0228      41                N/A     5/ 6   2/11
1ST LANDING BUOY 0300   41     360/ 10/ 14 1008.1F   2/ 4
OFFSHORE WE BUOY 0211      41                N/A     6/10   5/10
64NM E OF VA BCH 0250   44 56  350/ 25/ 29 1005.1F   9/ 7
DUCK PIER NC     0200           10/ 22/ 25 1006.4F
44056 DUCK FRF   0211      41                N/A     6/10   2/11
OREGON INLET NC  0200   40 49  350/ 15/ 26 1007.1F
HATTERAS NC      0212   46 57   10/ 23/ 27 1006.1F
CAPE LOOKOUT NC  0300   44     360/ 17/ 22 1006.5S
$$



USA.gov is the U.S. government's official web portal to all federal, state and local government web resources and services.